星链-30043 (STARLINK-30043 )

导读 | 星芒AI

STARLINK-30043 是 SpaceX Starlink 卫星互联网项目中的一颗低轨卫星,属于第三代星链卫星(v1.5 或 v2 架构)。该卫星由 SpaceX 制造并发射,旨在为全球用户提供高速、低延迟的宽带互联网服务。它运行在约 550 公里的轨道高度,配备先进通信设备和激光链路,支持星间通信。STARLINK-30043 与其他星链卫星共同构建全球网络,提升偏远地区网络覆盖,推动 Starlink 服务的扩展与性能优化。

基本信息
目录编号:
57417
目录名称:
STARLINK-30043
国际标识:
2023-102P
轨道中心:
EARTH
卫星名称:
星链-30043
卫星全名:
星链-30043 (STARLINK-30043 )
卫星状态:
在轨 (已飞行882 天)
发射日期:
2023-07-20 UTC
国别 :
美国 (US)
星等 :
--
轨道信息
数据来源 国际轨道数据 AOE轨道数据
星历时间 2025-12-18T08:13:01+0800
17小时前
查看轨道信息
2025-12-16T20:00:00+0800
2天前
查看轨道信息
半长轴 6937.223km 6937.179km
偏心率 0.0001087 0.0000011
轨道倾角 43.008° 43.003°
近地点辐角 270.776° 187.982°
升交点赤经 332.347° 340.544°
平近点角 89.296° 280.182°
近地点 558.333km 559.036km
远地点 559.843km 559.052km
周期 95.838分钟 95.837分钟
每日圈数 15.025339 15.025484
详细信息
固有亮度:
5
最大亮度:
0.3
卫星平台:
Starlink v2.0 mini
覆盖范围:
全球
运营商:
太空探索技术公司
运营商所在国:
美国
制造商(研发单位):
太空探索技术公司
制造商所在国:
美国
使用方式:
暂无
卫星简介
星链(Starlink)计划是由太空探索技术公司(SpaceX)提出的一个巨型低轨卫星互联网星座项目,计划在2019年至2024年间在太空搭建由约1.2万颗卫星组成的“星链”网络,其中1584颗将部署在地球上空550千米处的近地轨道,并从2020年开始工作。该卫星仍在工作。
2D轨道图
3D轨道图
轨道高度分析图
轨道倾角分析图
轨道综合分析图
查看轨道综合分析图